#timestamp,LO_Frequency,Hit,StdDev 
1570608015.2,286047001.3,N
1570608035.0,286047004.6,N
1570608035.9,286047004.6,N
1570608055.7,286047002.9,N
1570608075.6,286046998.2,N
1570608095.4,286046998.1,N
1570608115.3,286047001.4,N
1570608135.1,286047005.5,N
1570608136.0,286047005.5,N
1570608155.8,286047003.2,N
1570608175.7,286047001.5,N
1570608195.5,286047000.9,N
1570608215.3,286047001.8,N
1570608235.2,286047003.2,N
1570608255.0,286047002.4,N
1570608255.9,286047002.4,N
1570608275.8,286047007.4,Y
1570608295.6,286047002.8,P
1570608315.4,286047001.7,P
1570608335.3,286046997.0,P
1570608355.1,286046997.6,N
1570608375.9,286046998.9,N
1570608395.7,286047000.4,N
1570608415.5,286046997.5,N
1570608435.4,286046995.1,N
1570608455.2,286046996.3,N
1570608475.0,286046995.0,N
1570608475.9,286046995.0,N
1570608495.8,286046995.5,N
1570608515.6,286046996.3,N
1570608535.4,286046992.1,N
1570608555.3,286046990.3,Y
1570608575.1,286046990.6,P
1570608595.9,286046991.7,N
1570608615.7,286046994.8,N
1570608635.5,286046994.5,N
1570608655.4,286046995.9,N
1570608675.2,286046999.2,N
1570608695.0,286047000.8,N
1570608696.0,286047000.8,N
1570608715.8,286046997.6,N
1570608735.6,286046994.4,N
1570608755.5,286046992.0,N
1570608775.3,286046991.8,N
1570608795.1,286046992.3,N
1570608815.9,286046990.9,N
1570608835.7,286046991.8,N
1570608855.5,286046992.8,N
1570608875.4,286046990.9,N
1570608895.2,286046990.7,N
1570608915.1,286046992.8,N
1570608916.0,286046992.8,N
1570608935.8,286046990.6,N
1570608955.6,286046990.8,N
1570608975.5,286046987.5,Y
1570608995.3,286046994.3,P
1570609015.2,286046993.3,P
1570609035.9,286046995.3,P
1570609055.7,286046996.7,Y
1570609075.6,286047002.5,P
1570609095.4,286047000.0,N
1570609115.2,286046998.7,N
1570609135.1,286047005.6,N
1570609136.0,286047005.6,N
1570609155.8,286047004.1,N
1570609175.7,286047003.0,N
1570609195.5,286047004.5,N
1570609215.3,286047007.0,N
1570609235.2,286047006.7,N
1570609255.0,286047010.6,N
1570609255.9,286047010.6,N
1570609275.7,286047010.3,N
1570609295.6,286047008.1,N
1570609315.4,286047008.5,N
1570609335.3,286047006.2,N
1570609355.1,286047006.1,N
1570609356.0,286047006.1,N
1570609375.8,286047006.5,N
1570609395.7,286047006.9,N
1570609415.5,286047003.1,N
1570609435.3,286047001.7,N
1570609455.2,286047003.7,N
1570609475.0,286047001.5,N
1570609475.9,286047001.5,N
1570609495.8,286047001.3,N
1570609515.6,286047003.3,N
1570609535.4,286047001.6,N
1570609555.3,286047001.4,N
1570609575.1,286047007.6,N
1570609595.8,286047001.4,N
1570609615.7,286047001.4,N
1570609635.5,286047000.8,N
1570609655.4,286047001.3,N
1570609675.2,286047001.6,N
1570609695.0,286046999.9,N
1570609695.9,286046999.9,N
1570609715.8,286047004.4,N
1570609735.6,286047003.1,N
1570609755.4,286047004.9,N
1570609775.3,286047006.2,N
1570609795.1,286047005.5,N
1570609815.9,286047005.1,N
1570609835.7,286047006.0,N
1570609855.5,286047006.4,N
1570609875.4,286047005.7,N
1570609895.2,286047006.1,N
1570609915.0,286047006.7,N
1570609916.0,286047006.7,N
1570609935.8,286047006.0,N
1570609955.6,286047004.7,N
1570609975.5,286047001.5,N
1570609995.3,286047001.1,N
1570610015.1,286047000.4,N
1570610035.9,286046998.8,N
1570610055.7,286046999.3,N
1570610075.6,286047000.8,N
1570610095.4,286047000.9,N
1570610115.2,286047000.4,N
1570610135.1,286047000.0,N
1570610136.0,286047000.0,N
1570610155.8,286047002.8,N
1570610175.6,286046996.5,N
1570610195.5,286046995.8,N
1570610215.3,286046998.0,N
1570610235.2,286046996.5,N
1570610255.9,286047000.6,N
1570610275.7,286046998.2,N
1570610295.6,286047000.4,N
1570610315.4,286047000.0,N
1570610335.2,286046998.6,N
1570610355.1,286047000.8,N
1570610356.0,286047000.8,N
1570610375.8,286046998.5,N
1570610395.7,286046993.3,N
1570610415.5,286046993.8,N
1570610435.3,286046995.9,N
1570610455.2,286046993.8,N
1570610475.0,286046999.6,N
1570610475.9,286046999.6,N
1570610495.7,286046997.9,N
1570610515.6,286046996.0,N
1570610535.4,286046996.0,N
1570610555.3,286046995.8,N
1570610575.1,286046994.9,N
1570610576.0,286046994.9,N
1570610595.8,286046993.3,N
1570610615.7,286046994.6,N
1570610635.5,286046990.2,Y
1570610655.4,286046997.0,P
1570610675.2,286046996.0,P
1570610695.0,286046995.2,P
1570610695.9,286046995.2,Y
1570610715.8,286047000.0,P
1570610735.6,286046999.4,N
1570610755.5,286046998.0,N
1570610775.3,286046999.8,N
1570610795.1,286047001.7,N
1570610815.9,286047000.1,N
1570610835.7,286046999.6,N
1570610855.5,286046996.5,N
1570610875.4,286046998.9,N
1570610895.2,286047000.5,N
1570610915.1,286047000.6,N
1570610916.0,286047000.6,N
1570610935.8,286046999.8,N
1570610955.6,286046999.0,N
1570610975.5,286046997.2,N
1570610995.3,286046996.6,N
1570611015.2,286046997.5,N
1570611035.9,286046997.4,N
1570611055.7,286046997.3,N
1570611075.6,286046995.6,N
1570611095.4,286046997.5,N
1570611115.2,286046999.0,N
1570611135.1,286046997.3,N
1570611136.0,286046997.3,N
1570611155.8,286046997.6,N
1570611175.7,286046995.6,N
1570611195.5,286046992.2,Y
1570611215.3,286046997.6,P
1570611235.2,286046996.2,P
1570611255.0,286046994.3,P
1570611255.9,286046994.3,Y
1570611275.8,286046995.9,P
1570611295.6,286046994.0,P
1570611315.4,286046993.5,P
1570611335.3,286046993.6,Y
1570611355.1,286046998.6,P
1570611375.8,286047001.2,N
1570611395.7,286047002.6,N
1570611415.5,286047003.7,N
1570611435.4,286047002.8,N
1570611455.2,286046999.8,N
1570611475.0,286046998.6,N
1570611475.9,286046998.6,N
1570611495.8,286047000.4,N
1570611515.6,286047000.8,N
1570611535.4,286046998.2,N
1570611555.3,286047002.4,N
1570611575.1,286047000.0,N
1570611595.9,286046999.8,N
